This is the latest recevied weather packets stored in our database for station/object MARKET. If no packets are shown the sender has not sent any weather packets the latest 10 day(s).
| Time | Temp. | Humidity | Pressure | Rain* | Wind** | Luminosity | Snow |
|---|---|---|---|---|---|---|---|
| 1777507617 | 6.67° C | 83% | 1024.8 hPa | - | - | - | - |
| 1777506418 | 6.67° C | 85% | 1024.9 hPa | - | - | - | - |
| 1777505218 | 6.67° C | 84% | 1025 hPa | - | - | - | - |
| 1777504017 | 6.67° C | 81% | 1025 hPa | - | - | - | - |
| 1777502818 | 6.11° C | 79% | 1025.1 hPa | - | - | - | - |
| 1777501617 | 6.11° C | 79% | 1025.2 hPa | - | - | - | - |
| 1777500417 | 6.11° C | 76% | 1025.2 hPa | - | - | - | - |
| 1777499217 | 6.11° C | 73% | 1025.2 hPa | - | - | - | - |
| 1777498017 | 5.56° C | 78% | 1025.1 hPa | - | - | - | - |
| 1777496817 | 5.56° C | 78% | 1025.3 hPa | - | - | - | - |
| 1777495618 | 5.56° C | 76% | 1025.2 hPa | - | - | - | - |
| 1777494416 | 5.56° C | 76% | 1025.4 hPa | - | - | - | - |
| 1777493217 | 5° C | 75% | 1025.7 hPa | - | - | - | - |
| 1777492016 | 5° C | 76% | 1025.9 hPa | - | - | - | - |
| 1777490817 | 5° C | 74% | 1025.8 hPa | - | - | - | - |
| 1777489617 | 5° C | 75% | 1025.8 hPa | - | - | - | - |
| 1777488416 | 5° C | 74% | 1025.8 hPa | - | - | - | - |
| 1777487216 | 4.44° C | 76% | 1025.7 hPa | - | - | - | - |
| 1777486016 | 4.44° C | 79% | 1025.8 hPa | - | - | - | - |
| 1777484816 | 4.44° C | 79% | 1025.7 hPa | - | - | - | - |
| 1777483616 | 4.44° C | 66% | 1025.9 hPa | - | - | - | - |
| 1777482416 | 4.44° C | 63% | 1026.1 hPa | - | - | - | - |
| 1777481216 | 5° C | 64% | 1026 hPa | - | - | - | - |
| 1777480015 | 5° C | 63% | 1026.1 hPa | - | - | - | - |
| 1777478815 | 5.56° C | 58% | 1026.2 hPa | - | - | - | - |
* Rain since midnight (hover to see other rain measurements)
** Current wind speed in m/s (hover to see current wind gust speed)